パンスターズ彗星

C/2023 RS61 ( PanSTARRS )

English version
Home page
Updated on October 21, 2025

---------------------------------------------------------------------

・ プロフィール

発見日 2023年9月15日
発見光度 21.9等
発見者 Pan-STARRS 2 telescope (Haleakala)

・ 写真集

・ 軌道要素

                    Epoch = 2028 Dec. 15.0 TT
     T = 2028 Dec. 10.48389 TT        Peri. = 119.87138
     e = 0.3262472                    Node  = 347.04193 2000.0
     q = 7.9886770 AU                 Incl. =  19.94800
       a = 11.8569843 AU   n = 0.02414030   P =  40.83 years

・ 光度変化

        m1 = -14.0 + 5 logΔ + 28 log r

---------------------------------------------------------------------

軌道要素は、CBET 5539に掲載されたものです。
光度グラフはComet for Windowsで作成したものです。

---------------------------------------------------------------------

Copyright(C) Seiichi Yoshida (comet@aerith.net). All rights reserved.